Weather History for Ely, MN

Change the Weather History Date:

Sunday, March 2, 2014

  Actual Average Record
Temperature  
Mean Temperature -13 °F -  
Max Temperature 3 °F 23 °F 44 °F (2001)
Min Temperature -29 °F 4 °F -29 °F (2009)
Degree Days  
Heating Degree Days 78    
Moisture  
Dew Point -26 °F    
Average Humidity 59    
Maximum Humidity 77    
Minimum Humidity 39    
Precipitation  
Precipitation 0.00 in - - ()
Sea Level Pressure  
Sea Level Pressure 30.32 in    
Wind  
Wind Speed 6 mph (West)    
Max Wind Speed 15 mph    
Max Gust Speed 24 mph    
Visibility 10 miles    
Events      
Averages and records for this station are not official NWS values.
T = Trace of Precipitation, MM = Missing Value Source: NWS Daily Summary

Daily Weather History Graph

Daily Weather History Graph

Search for Another Location

Airport:

Trip Planner

Search our weather history database for the weather conditions in past years. The results will help you decide how hot, cold, wet, or windy it might be!

Date:

Astronomy

Mar. 02, 2014 Rise Set
Actual Time 6:46 AM CST 5:53 PM CST
Civil Twilight 6:15 AM CST 6:24 PM CST
Nautical Twilight 5:39 AM CST 7:00 PM CST
Astronomical Twilight 5:03 AM CST 7:36 PM CST
Moon 7:08 AM CST (3/2) 8:01 PM CST (3/2)
Length of Visible Light 12h 09m
Length of Day
11h 07m
Waxing Crescent, 3% of the Moon is Illuminated
Mar 2
Waxing Crescent
Mar 8
First Quarter
Mar 16
Full
Mar 23
Last Quarter
Mar 30
New

Hourly Weather History & Observations

Time (CST) Temp. Windchill Dew Point Humidity Pressure Visibility Wind Dir Wind Speed Gust Speed Precip Events Conditions
12:13 AM -23.8 °F -37.7 °F -32.8 °F 63% 30.35 in 10.0 mi West 4.6 mph - N/A   Clear
12:33 AM -23.8 °F -37.7 °F -32.8 °F 63% 30.34 in 10.0 mi WNW 4.6 mph - N/A   Clear
12:53 AM -23.8 °F -35.0 °F -32.8 °F 63% 30.34 in 10.0 mi WNW 3.5 mph - N/A   Clear
1:13 AM -23.8 °F -37.7 °F -32.8 °F 63% 30.34 in 10.0 mi West 4.6 mph - N/A   Clear
1:33 AM -23.8 °F -37.7 °F -32.8 °F 63% 30.34 in 10.0 mi West 4.6 mph - N/A   Clear
1:53 AM -25.6 °F -41.9 °F -32.8 °F 69% 30.34 in 10.0 mi West 5.8 mph - N/A   Clear
2:13 AM -25.6 °F -41.9 °F -32.8 °F 69% 30.34 in 10.0 mi WSW 5.8 mph - N/A   Clear
2:33 AM -25.6 °F -39.8 °F -32.8 °F 69% 30.34 in 10.0 mi WSW 4.6 mph - N/A   Clear
2:53 AM -27.4 °F -44.1 °F -34.6 °F 69% 30.33 in 10.0 mi WSW 5.8 mph - N/A   Clear
3:13 AM -27.4 °F -41.9 °F -34.6 °F 69% 30.33 in 10.0 mi SW 4.6 mph - N/A   Clear
3:32 AM -27.4 °F -41.9 °F -34.6 °F 69% 30.33 in 10.0 mi SW 4.6 mph - N/A   Clear
3:53 AM -27.4 °F -39.2 °F -34.6 °F 69% 30.33 in 10.0 mi SW 3.5 mph - N/A   Clear
4:13 AM -27.4 °F -44.1 °F -34.6 °F 69% 30.32 in 10.0 mi SW 5.8 mph - N/A   Clear
4:32 AM -27.4 °F -39.2 °F -34.6 °F 69% 30.32 in 10.0 mi SW 3.5 mph - N/A   Clear
4:53 AM -29.2 °F -41.2 °F -34.6 °F 75% 30.32 in 10.0 mi SW 3.5 mph - N/A   Clear
5:13 AM -29.2 °F -41.2 °F -34.6 °F 75% 30.32 in 10.0 mi SW 3.5 mph - N/A   Clear
5:33 AM -29.2 °F -41.2 °F -34.6 °F 75% 30.32 in 10.0 mi SW 3.5 mph - N/A   Clear
5:51 AM -29.2 °F -41.2 °F -34.6 °F 75% 30.32 in 10.0 mi SW 3.5 mph - N/A   Clear
6:13 AM -29.2 °F -48.1 °F -36.4 °F 68% 30.32 in 10.0 mi SW 6.9 mph - N/A   Clear
6:33 AM -29.2 °F -46.2 °F -36.4 °F 68% 30.32 in 10.0 mi WSW 5.8 mph - N/A   Clear
6:53 AM -29.2 °F -48.1 °F -36.4 °F 68% - 10.0 mi SW 6.9 mph - N/A   Clear
7:13 AM -29.2 °F -48.1 °F -34.6 °F 75% - 10.0 mi WSW 6.9 mph - N/A   Clear
7:33 AM -27.4 °F -45.9 °F -34.6 °F 69% - 10.0 mi WSW 6.9 mph - N/A   Clear
7:53 AM -25.6 °F -41.9 °F -32.8 °F 69% 30.32 in 10.0 mi WSW 5.8 mph - N/A   Clear
8:13 AM -23.8 °F -41.6 °F -31.0 °F 69% 30.32 in 10.0 mi West 6.9 mph - N/A   Clear
8:33 AM -22.0 °F -42.3 °F -29.2 °F 69% 30.32 in 10.0 mi WSW 9.2 mph - N/A   Clear
8:53 AM -18.4 °F -36.6 °F -29.2 °F 58% 30.32 in 10.0 mi West 8.1 mph - N/A   Clear
9:13 AM -18.4 °F -39.1 °F -27.4 °F 63% 30.32 in 10.0 mi West 10.4 mph 17.3 mph N/A   Clear
9:33 AM -16.6 °F -37.9 °F -27.4 °F 58% 30.32 in 10.0 mi West 11.5 mph 17.3 mph N/A   Clear
9:53 AM -16.6 °F -34.4 °F -27.4 °F 58% 30.32 in 10.0 mi West 8.1 mph 17.3 mph N/A   Clear
10:13 AM -14.8 °F -33.5 °F -25.6 °F 58% 30.31 in 10.0 mi West 9.2 mph 16.1 mph N/A   Clear
10:33 AM -11.2 °F -27.8 °F -25.6 °F 49% 30.31 in 10.0 mi WSW 8.1 mph - N/A   Clear
10:52 AM -9.4 °F -24.3 °F -23.8 °F 49% 30.32 in 10.0 mi West 6.9 mph - N/A   Clear
11:13 AM -7.6 °F -26.6 °F -23.8 °F 45% 30.31 in 10.0 mi West 11.5 mph - N/A   Clear
11:32 AM -7.6 °F -29.1 °F -23.8 °F 45% 30.32 in 10.0 mi West 15.0 mph 18.4 mph N/A   Clear
11:53 AM -7.6 °F -26.6 °F -22.0 °F 50% 30.32 in 10.0 mi West 11.5 mph 17.3 mph N/A   Clear
12:13 PM -5.8 °F -24.4 °F -22.0 °F 46% 30.31 in 10.0 mi West 11.5 mph - N/A   Clear
12:32 PM -5.8 °F -21.2 °F -20.2 °F 50% 30.31 in 10.0 mi WSW 8.1 mph 17.3 mph N/A   Clear
12:53 PM -2.2 °F -18.9 °F -20.2 °F 42% 30.30 in 10.0 mi West 10.4 mph - N/A   Clear
1:13 PM -2.2 °F -21.5 °F -18.4 °F 46% 30.29 in 10.0 mi West 13.8 mph 18.4 mph N/A   Clear
1:32 PM -0.4 °F -19.2 °F -18.4 °F 43% 30.29 in 10.0 mi West 13.8 mph 18.4 mph N/A   Clear
1:53 PM -0.4 °F -18.4 °F -18.4 °F 43% 30.29 in 10.0 mi WNW 12.7 mph 24.2 mph N/A   Clear
2:13 PM 1.4 °F -16.9 °F -16.6 °F 43% 30.28 in 10.0 mi West 13.8 mph 19.6 mph N/A   Clear
2:33 PM 1.4 °F -14.5 °F -16.6 °F 43% 30.29 in 10.0 mi West 10.4 mph 19.6 mph N/A   Clear
2:53 PM 1.4 °F -15.3 °F -16.6 °F 43% 30.29 in 10.0 mi WNW 11.5 mph 17.3 mph N/A   Clear
3:13 PM 1.4 °F -16.1 °F -16.6 °F 43% 30.28 in 10.0 mi West 12.7 mph 18.4 mph N/A   Clear
3:33 PM 3.2 °F -11.3 °F -16.6 °F 39% 30.28 in 10.0 mi WNW 9.2 mph 16.1 mph N/A   Clear
3:53 PM 3.2 °F -14.6 °F -16.6 °F 39% 30.28 in 10.0 mi West 13.8 mph 18.4 mph N/A   Clear
4:13 PM 3.2 °F -13.1 °F -16.6 °F 39% 30.29 in 10.0 mi West 11.5 mph 19.6 mph N/A   Clear
4:33 PM 3.2 °F -13.9 °F -16.6 °F 39% 30.29 in 10.0 mi West 12.7 mph 18.4 mph N/A   Clear
4:53 PM 3.2 °F -12.2 °F -16.6 °F 39% 30.29 in 10.0 mi WNW 10.4 mph 18.4 mph N/A   Clear
5:13 PM 1.4 °F -16.9 °F -16.6 °F 43% 30.30 in 10.0 mi WNW 13.8 mph 18.4 mph N/A   Clear
5:33 PM 1.4 °F -15.3 °F -16.6 °F 43% 30.31 in 10.0 mi WNW 11.5 mph - N/A   Clear
5:53 PM -0.4 °F -14.7 °F -16.6 °F 46% 30.31 in 10.0 mi WNW 8.1 mph - N/A   Clear
6:13 PM -2.2 °F -14.2 °F -16.6 °F 50% 30.31 in 10.0 mi WNW 5.8 mph - N/A   Clear
6:33 PM -2.2 °F -12.5 °F -16.6 °F 50% 30.32 in 10.0 mi West 4.6 mph - N/A   Clear
6:53 PM -4.0 °F -12.4 °F -16.6 °F 55% 30.32 in 10.0 mi WNW 3.5 mph - N/A   Clear
7:13 PM -4.0 °F - -16.6 °F 55% 30.33 in 10.0 mi Calm Calm - N/A   Clear
7:33 PM -4.0 °F - -16.6 °F 55% 30.33 in 10.0 mi Calm Calm - N/A   Clear
7:52 PM -5.8 °F - -16.6 °F 60% 30.34 in 10.0 mi Calm Calm - N/A   Clear
8:13 PM -7.6 °F -16.5 °F -18.4 °F 59% 30.34 in 10.0 mi NW 3.5 mph - N/A   Clear
8:33 PM -7.6 °F - -18.4 °F 59% 30.34 in 10.0 mi Calm Calm - N/A   Clear
8:52 PM -7.6 °F - -18.4 °F 59% 30.35 in 10.0 mi Calm Calm - N/A   Clear
9:13 PM -11.2 °F - -20.2 °F 64% 30.36 in 10.0 mi Calm Calm - N/A   Clear
9:33 PM -14.8 °F - -20.2 °F 77% 30.36 in 10.0 mi Calm Calm - N/A   Clear
9:53 PM -16.6 °F - -23.8 °F 70% 30.37 in 10.0 mi Calm Calm - N/A   Clear
10:13 PM -18.4 °F - -25.6 °F 70% 30.37 in 10.0 mi Calm Calm - N/A   Clear
10:32 PM -20.2 °F - -27.4 °F 69% 30.37 in 10.0 mi Calm Calm - N/A   Clear
10:53 PM -22.0 °F - -27.4 °F 76% 30.37 in 10.0 mi Calm Calm - N/A   Clear
11:13 PM -22.0 °F -33.0 °F -27.4 °F 76% 30.38 in 10.0 mi WSW 3.5 mph - N/A   Clear
11:32 PM -23.8 °F - -29.2 °F 76% 30.38 in 10.0 mi Calm Calm - N/A   Clear
11:53 PM -25.6 °F -37.1 °F -31.0 °F 76% 30.38 in 10.0 mi WSW 3.5 mph - N/A   Clear